Overview Statistics Trail Chart Weather Telemetry Raw packets
 

This is the latest recevied weather packets stored in our database for station/object KD7DVD-1. If no packets are shown the sender has not sent any weather packets the latest 10 day(s).

<< 16 17 18 19 20 >>
Time Temp. Humidity Pressure Rain* Wind** Luminosity Snow
1787886016 19.44° C 69% 1017 hPa 0 mm - - -
1787884217 21.11° C 65% 1017.1 hPa 0 mm - - -
1787882416 22.22° C 61% 1017 hPa 0 mm - - -
1787880617 24.44° C 55% 1017.2 hPa 0 mm - - -
1787878816 24.44° C 55% 1016.8 hPa 0 mm - - -
1787877016 22.78° C 59% 1016.7 hPa 0 mm - - -
1787875216 22.78° C 58% 1016.8 hPa 0 mm - - -
1787873416 23.89° C 57% 1016.7 hPa 0 mm - - -
1787871616 23.33° C 59% 1016.9 hPa 0 mm - - -
1787869816 22.78° C 62% 1017.2 hPa 0 mm - - -
1787868016 23.33° C 60% 1017.1 hPa 0 mm - - -
1787866215 23.89° C 58% 1017.3 hPa 0 mm - - -
1787864415 22.78° C 61% 1017.3 hPa 0 mm - - -
1787862618 22.22° C 64% 1017.5 hPa 0 mm - - -
1787860816 21.67° C 64% 1017.4 hPa 0 mm - - -
1787859017 21.11° C 67% 1017.4 hPa 0 mm - - -
1787857217 21.11° C 66% 1017.3 hPa 0 mm - - -
1787855417 21.11° C 67% 1017.4 hPa 0 mm - - -
1787853617 20.56° C 67% 1017.1 hPa 0 mm - - -
1787851817 20.56° C 68% 1016.8 hPa 0 mm - - -
1787850017 19.44° C 74% 1016.6 hPa 0 mm - - -
1787848217 18.89° C 75% 1016.5 hPa 0 mm - - -
1787846417 18.33° C 77% 1016.4 hPa 0 mm - - -
1787844617 17.78° C 80% 1016.4 hPa 0 mm - - -
1787842817 17.22° C 82% 1016.2 hPa 0 mm - - -

* Rain latest hour (hover to see other rain measurements)
** Current wind speed in m/s (hover to see current wind gust speed)